, AK

(GMT )
Portage Glacier

Weather History for PATO - November, 2012

Change the Weather History Date:

Tuesday, November 13, 2012

  Actual Average Record
Temperature  
Mean Temperature 32 °F -  
Max Temperature 37 °F - - ()
Min Temperature 28 °F - - ()
Degree Days  
Heating Degree Days 32    
Moisture  
Dew Point 28 °F    
Average Humidity 85    
Maximum Humidity 93    
Minimum Humidity 59    
Precipitation  
Precipitation 0.01 in - - ()
Sea Level Pressure  
Sea Level Pressure 29.89 in    
Wind  
Wind Speed 6 mph (SE)    
Max Wind Speed 14 mph    
Max Gust Speed 30 mph    
Visibility 7 miles    
Events Snow    
Averages and records for this station are not official NWS values.
T = Trace of Precipitation, MM = Missing Value Source: NWS Daily Summary

Daily Weather History Graph

Daily Weather History Graph

Search for Another Location

Airport or City:

Trip Planner

Search our weather history database for the weather conditions in past years. The results will help you decide how hot, cold, wet, or windy it might be!

Date:

Astronomy

Nov. 13, 2012 Rise Set
Actual Time 8:55 AM AKST 4:23 PM AKST
Civil Twilight 8:04 AM AKST 5:13 PM AKST
Nautical Twilight 7:11 AM AKST 6:06 PM AKST
Astronomical Twilight 6:21 AM AKST 6:56 PM AKST
Moon 8:53 AM AKST (11/13) 4:13 PM AKST (11/13)
Length of Visible Light 9h 09m
Length of Day
7h 28m
Waning Crescent, 0% of the Moon is Illuminated
Nov 13
Waning Crescent
Nov 13
New
Nov 20
First Quarter
Nov 28
Full
Dec 6
Last Quarter

Hourly Weather History & Observations

Time (AKST) Temp. Windchill Dew Point Humidity Pressure Visibility Wind Dir Wind Speed Gust Speed Precip Events Conditions
12:53 AM 30.0 °F 22.4 °F 28.0 °F 92% 30.05 in 10.0 mi WNW 8.1 mph - N/A   Overcast
1:53 AM 30.0 °F 23.2 °F 28.0 °F 92% 30.03 in 10.0 mi West 6.9 mph - N/A   Overcast
2:53 AM 30.0 °F 22.4 °F 28.0 °F 92% 30.03 in 10.0 mi West 8.1 mph - N/A   Overcast
3:53 AM 28.9 °F 22.8 °F 27.0 °F 92% 30.02 in 10.0 mi West 5.8 mph - N/A   Overcast
4:53 AM 28.9 °F 21.9 °F 27.0 °F 92% 30.01 in 10.0 mi West 6.9 mph - N/A   Overcast
5:53 AM 28.9 °F 23.9 °F 27.0 °F 92% 30.00 in 10.0 mi West 4.6 mph - N/A   Overcast
6:53 AM 28.9 °F - 27.0 °F 92% 30.00 in 10.0 mi Calm Calm - N/A   Overcast
7:51 AM 28.4 °F - 26.6 °F 93% 29.98 in 10.0 mi Calm Calm - N/A   Overcast
7:53 AM 28.9 °F - 27.0 °F 92% 29.99 in 10.0 mi Calm Calm - N/A   Overcast
8:20 AM 28.9 °F - 27.0 °F 92% 29.99 in 10.0 mi Calm Calm - N/A   Overcast
8:53 AM 28.9 °F - 27.0 °F 92% 30.00 in 10.0 mi Calm Calm - N/A   Overcast
9:30 AM 28.9 °F - 27.0 °F 92% 29.99 in 10.0 mi Calm Calm - N/A   Overcast
9:53 AM 28.9 °F - 27.0 °F 92% 29.99 in 10.0 mi Calm Calm - N/A   Overcast
10:53 AM 30.0 °F 26.5 °F 27.0 °F 88% 29.97 in 10.0 mi Variable 3.5 mph - N/A   Overcast
11:50 AM 30.2 °F 25.4 °F 26.6 °F 86% 29.95 in 10.0 mi ESE 4.6 mph - N/A   Scattered Clouds
11:53 AM 30.0 °F 26.5 °F 27.0 °F 88% 29.95 in 10.0 mi SE 3.5 mph - N/A   Partly Cloudy
12:53 PM 30.0 °F - 28.0 °F 92% 29.94 in 10.0 mi Calm Calm - N/A   Clear
1:53 PM 35.1 °F 27.9 °F 26.1 °F 70% 29.91 in 10.0 mi ESE 9.2 mph 16.1 mph N/A   Partly Cloudy
2:53 PM 33.1 °F 28.7 °F 26.1 °F 75% 29.88 in 10.0 mi Variable 4.6 mph - N/A   Mostly Cloudy
3:53 PM 37.0 °F 32.4 °F 24.1 °F 59% 29.87 in 10.0 mi Variable 5.8 mph - N/A   Overcast
4:53 PM 37.0 °F 31.6 °F 24.1 °F 59% 29.85 in 10.0 mi Variable 6.9 mph - N/A   Overcast
5:53 PM 36.0 °F 29.6 °F 27.0 °F 70% 29.84 in 10.0 mi SE 8.1 mph - N/A   Overcast
6:53 PM 34.0 °F 26.0 °F 30.0 °F 85% 29.83 in 7.0 mi SE 10.4 mph 18.4 mph 0.00 in Snow Light Snow
7:53 PM 35.1 °F 26.9 °F 28.9 °F 78% 29.81 in 5.0 mi ESE 11.5 mph 19.6 mph 0.00 in Snow Light Snow
8:28 PM 34.0 °F 25.0 °F 30.0 °F 85% 29.80 in 3.0 mi ESE 12.7 mph 25.3 mph 0.00 in Snow Light Snow
8:37 PM 34.0 °F 25.0 °F 28.9 °F 82% 29.79 in 2.5 mi ESE 12.7 mph 24.2 mph 0.00 in Snow Light Snow
8:46 PM 34.0 °F 26.6 °F 28.9 °F 82% 29.79 in 3.0 mi ESE 9.2 mph 21.9 mph 0.00 in Snow Light Snow
8:53 PM 34.0 °F 27.2 °F 30.0 °F 85% 29.80 in 3.0 mi SE 8.1 mph - 0.00 in Snow Light Snow
9:53 PM 34.0 °F 24.6 °F 28.9 °F 82% 29.77 in 5.0 mi ESE 13.8 mph 24.2 mph 0.00 in Snow Light Snow
10:38 PM 33.1 °F 23.9 °F 30.0 °F 89% 29.76 in 2.5 mi SE 12.7 mph 20.7 mph 0.00 in Snow Light Snow
10:53 PM 34.0 °F 25.0 °F 28.9 °F 82% 29.75 in 2.0 mi ESE 12.7 mph 29.9 mph 0.01 in Snow Light Snow
11:20 PM 33.1 °F 24.4 °F 30.0 °F 89% 29.74 in 1.5 mi ESE 11.5 mph 23.0 mph 0.00 in Snow Light Snow
11:37 PM 34.0 °F 25.5 °F 30.0 °F 85% 29.74 in 2.0 mi ESE 11.5 mph 23.0 mph 0.00 in Snow Light Snow
11:44 PM 33.1 °F 25.5 °F 30.0 °F 89% 29.74 in 1.5 mi ESE 9.2 mph 21.9 mph 0.00 in Snow Light Snow
11:53 PM 34.0 °F 24.6 °F 28.0 °F 79% 29.74 in 1.8 mi ESE 13.8 mph 25.3 mph 0.00 in Snow Light Snow